Minneapolis Flying Cloud, MN

4:15 AM CDT on May 23, 2017 (GMT -0500)
Flying Cloud

Weather History for KFCM - December, 2014

Change the Weather History Date:

Wednesday, December 3, 2014

  Actual Average Record
Temperature  
Mean Temperature 16 °F -  
Max Temperature 23 °F 34 °F 60 °F (1998)
Min Temperature 10 °F 20 °F -4 °F (2007)
Degree Days  
Heating Degree Days 48    
Moisture  
Dew Point 8 °F    
Average Humidity 71    
Maximum Humidity 84    
Minimum Humidity 53    
Precipitation  
Precipitation 0.00 in - - ()
Sea Level Pressure  
Sea Level Pressure 30.27 in    
Wind  
Wind Speed 8 mph (WSW)    
Max Wind Speed 17 mph    
Max Gust Speed 24 mph    
Visibility 10 miles    
Events      
Averages and records for this station are not official NWS values.
T = Trace of Precipitation, MM = Missing Value Source: NWS Daily Summary

Daily Weather History Graph

Daily Weather History Graph

Search for Another Location

Airport or City:

Trip Planner

Search our weather history database for the weather conditions in past years. The results will help you decide how hot, cold, wet, or windy it might be!

Date:

Astronomy

Dec. 03, 2014 Rise Set
Actual Time 7:33 AM CST 4:33 PM CST
Civil Twilight 7:00 AM CST 5:06 PM CST
Nautical Twilight 6:23 AM CST 5:43 PM CST
Astronomical Twilight 5:48 AM CST 6:18 PM CST
Moon 3:01 PM CST (12/3) 4:14 AM CST (12/3)
Length of Visible Light 10h 06m
Length of Day
9h 00m
Waxing Gibbous, 91% of the Moon is Illuminated
Dec 3
Waxing Gibbous
Dec 6
Full
Dec 14
Last Quarter
Dec 21
New
Dec 28
First Quarter

Hourly Weather History & Observations

Time (CST) Temp. Windchill Dew Point Humidity Pressure Visibility Wind Dir Wind Speed Gust Speed Precip Events Conditions
12:53 AM 17.1 °F 7.6 °F 10.0 °F 74% 30.05 in 10.0 mi West 6.9 mph - N/A   Clear
1:53 AM 12.9 °F 2.6 °F 9.0 °F 84% 30.08 in 10.0 mi SW 6.9 mph - N/A   Clear
2:53 AM 12.9 °F 1.6 °F 8.1 °F 81% 30.10 in 10.0 mi WSW 8.1 mph - N/A   Clear
3:53 AM 12.0 °F 2.7 °F 7.0 °F 80% 30.11 in 10.0 mi WSW 5.8 mph - N/A   Clear
4:53 AM 10.9 °F 1.4 °F 7.0 °F 84% 30.14 in 10.0 mi WSW 5.8 mph - N/A   Clear
5:53 AM 12.9 °F 3.8 °F 7.0 °F 77% 30.16 in 10.0 mi WSW 5.8 mph - N/A   Clear
6:53 AM 12.9 °F 1.6 °F 7.0 °F 77% 30.20 in 10.0 mi West 8.1 mph - N/A   Clear
7:53 AM 16.0 °F 0.1 °F 9.0 °F 74% 30.22 in 10.0 mi WNW 17.3 mph 24.2 mph N/A   Clear
8:53 AM 18.0 °F 6.9 °F 9.0 °F 68% 30.26 in 10.0 mi WNW 9.2 mph - N/A   Clear
9:53 AM 19.9 °F 7.9 °F 9.0 °F 62% 30.28 in 10.0 mi West 11.5 mph - N/A   Clear
10:53 AM 21.9 °F 9.2 °F 8.1 °F 55% 30.29 in 10.0 mi West 13.8 mph - N/A   Clear
11:53 AM 23.0 °F 12.4 °F 8.1 °F 53% 30.30 in 10.0 mi West 10.4 mph - N/A   Clear
12:53 PM 21.9 °F 7.8 °F 8.1 °F 55% 30.31 in 10.0 mi West 17.3 mph - N/A   Clear
1:53 PM 23.0 °F 11.7 °F 9.0 °F 55% 30.31 in 10.0 mi West 11.5 mph 16.1 mph N/A   Clear
2:53 PM 21.9 °F 10.4 °F 10.0 °F 60% 30.34 in 10.0 mi West 11.5 mph 18.4 mph N/A   Clear
3:53 PM 19.0 °F 10.0 °F 8.1 °F 62% 30.36 in 10.0 mi West 6.9 mph - N/A   Clear
4:53 PM 16.0 °F 8.8 °F 7.0 °F 68% 30.37 in 10.0 mi West 4.6 mph - N/A   Clear
5:53 PM 16.0 °F 10.4 °F 7.0 °F 68% 30.36 in 10.0 mi SSW 3.5 mph - N/A   Clear
6:53 PM 12.9 °F 5.2 °F 7.0 °F 77% 30.36 in 10.0 mi SSW 4.6 mph - N/A   Clear
7:53 PM 12.9 °F - 7.0 °F 77% 30.35 in 10.0 mi Calm Calm - N/A   Clear
8:53 PM 12.0 °F - 7.0 °F 80% 30.37 in 10.0 mi Calm Calm - N/A   Clear
9:53 PM 10.0 °F 1.8 °F 5.0 °F 80% 30.37 in 10.0 mi South 4.6 mph - N/A   Clear
10:53 PM 10.0 °F - 6.1 °F 84% 30.36 in 10.0 mi Calm Calm - N/A   Mostly Cloudy
11:53 PM 14.0 °F - 9.0 °F 80% 30.36 in 10.0 mi Calm Calm - N/A   Overcast